Time,TemperatureF,DewpointF,PressureIn,WindDirection,WindDirectionDegrees,WindSpeedMPH,WindSpeedGustMPH,Humidity,HourlyPrecipIn,Conditions,Clouds,dailyrainin,SoftwareType,DateUTC
2013-05-25 00:03:00,47.0,46.0,30.35,NW,311,1.0,0.0,95,0.03,,,-99.99,,2013-05-25 04:03:00,
2013-05-25 00:13:00,47.0,46.0,30.35,NW,311,1.0,0.0,95,0.03,,,-99.99,,2013-05-25 04:13:00,
2013-05-25 00:23:00,47.0,46.0,30.35,NW,309,0.0,0.0,95,0.03,,,-99.99,,2013-05-25 04:23:00,
2013-05-25 00:33:00,47.0,46.0,30.36,NW,309,0.0,0.0,96,0.03,,,-99.99,,2013-05-25 04:33:00,
2013-05-25 00:43:00,47.0,46.0,30.36,NW,309,0.0,0.0,96,0.03,,,-99.99,,2013-05-25 04:43:00,
2013-05-25 00:52:00,47.0,46.0,30.35,NW,326,6.0,0.0,96,0.03,,,-99.99,,2013-05-25 04:52:00,
2013-05-25 01:02:00,47.0,46.0,30.36,North,350,6.0,0.0,95,0.03,,,-99.99,,2013-05-25 05:02:00,
2013-05-25 01:12:00,47.0,46.0,30.36,North,350,6.0,0.0,95,0.03,,,-99.99,,2013-05-25 05:12:00,
2013-05-25 01:22:00,47.0,45.0,30.35,North,352,5.0,0.0,94,0.03,,,-99.99,,2013-05-25 05:22:00,
2013-05-25 01:32:00,47.0,45.0,30.35,North,6,4.0,0.0,93,0.03,,,-99.99,,2013-05-25 05:32:00,
2013-05-25 01:43:00,47.0,45.0,30.35,North,6,4.0,0.0,93,0.03,,,-99.99,,2013-05-25 05:43:00,
2013-05-25 01:52:00,46.0,44.0,30.35,NNE,13,4.0,0.0,92,0.03,,,-99.99,,2013-05-25 05:52:00,
2013-05-25 02:02:00,46.0,44.0,30.35,North,6,0.0,0.0,92,0.03,,,-99.99,,2013-05-25 06:02:00,
2013-05-25 02:12:00,46.0,44.0,30.35,North,6,0.0,0.0,92,0.03,,,-99.99,,2013-05-25 06:12:00,
2013-05-25 02:22:00,45.0,43.0,30.35,NNE,23,0.0,0.0,93,0.03,,,-99.99,,2013-05-25 06:22:00,
2013-05-25 02:32:00,45.0,43.0,30.35,NNE,23,0.0,0.0,93,0.03,,,-99.99,,2013-05-25 06:32:00,
2013-05-25 02:42:00,45.0,43.0,30.35,NNE,23,0.0,0.0,93,0.03,,,-99.99,,2013-05-25 06:42:00,
2013-05-25 02:52:00,45.0,44.0,30.35,NNE,23,0.0,0.0,95,0.03,,,-99.99,,2013-05-25 06:52:00,
2013-05-25 03:01:00,44.0,43.0,30.34,NE,41,5.0,0.0,96,0.03,,,-99.99,,2013-05-25 07:01:00,
2013-05-25 03:11:00,44.0,43.0,30.34,NE,41,5.0,0.0,96,0.03,,,-99.99,,2013-05-25 07:11:00,
2013-05-25 03:22:00,44.0,43.0,30.34,NE,35,4.0,0.0,96,0.03,,,-99.99,,2013-05-25 07:22:00,
2013-05-25 03:32:00,43.0,42.0,30.34,ENE,59,4.0,0.0,95,0.03,,,-99.99,,2013-05-25 07:32:00,
2013-05-25 03:42:00,43.0,42.0,30.34,ENE,59,4.0,0.0,95,0.03,,,-99.99,,2013-05-25 07:42:00,
2013-05-25 03:52:00,43.0,42.0,30.33,NE,39,0.0,0.0,95,0.03,,,-99.99,,2013-05-25 07:52:00,
2013-05-25 04:02:00,43.0,42.0,30.33,NE,39,0.0,0.0,95,0.03,,,-99.99,,2013-05-25 08:02:00,
2013-05-25 04:11:00,43.0,42.0,30.33,NE,39,0.0,0.0,95,0.03,,,-99.99,,2013-05-25 08:11:00,
2013-05-25 04:23:00,42.0,41.0,30.32,NE,39,0.0,0.0,96,0.03,,,-99.99,,2013-05-25 08:23:00,
2013-05-25 04:32:00,41.0,40.0,30.33,NNE,18,6.0,0.0,98,0.03,,,-99.99,,2013-05-25 08:32:00,
2013-05-25 04:42:00,41.0,40.0,30.33,NNE,18,6.0,0.0,98,0.03,,,-99.99,,2013-05-25 08:42:00,
2013-05-25 04:52:00,41.0,40.0,30.33,NNE,18,6.0,0.0,98,0.03,,,-99.99,,2013-05-25 08:52:00,
2013-05-25 05:02:00,41.0,41.0,30.34,NE,41,0.0,0.0,99,0.03,,,-99.99,,2013-05-25 09:02:00,
2013-05-25 05:11:00,41.0,41.0,30.34,NE,41,0.0,0.0,99,0.03,,,-99.99,,2013-05-25 09:11:00,
2013-05-25 05:21:00,41.0,41.0,30.34,NE,41,0.0,0.0,100,0.03,,,-99.99,,2013-05-25 09:21:00,
2013-05-25 05:33:00,41.0,41.0,30.34,NE,41,0.0,0.0,100,0.03,,,-99.99,,2013-05-25 09:33:00,
2013-05-25 05:43:00,41.0,41.0,30.34,NE,41,0.0,0.0,100,0.03,,,-99.99,,2013-05-25 09:43:00,
2013-05-25 05:53:00,40.0,40.0,30.34,NE,46,7.0,0.0,100,0.03,,,-99.99,,2013-05-25 09:53:00,
2013-05-25 06:03:00,40.0,40.0,30.35,NE,37,7.0,0.0,100,0.03,,,-99.99,,2013-05-25 10:03:00,
2013-05-25 06:12:00,40.0,40.0,30.35,NE,37,7.0,0.0,100,0.03,,,-99.99,,2013-05-25 10:12:00,
2013-05-25 06:23:00,40.0,40.0,30.34,NE,53,0.0,0.0,100,0.03,,,-99.99,,2013-05-25 10:23:00,
2013-05-25 06:33:00,40.0,40.0,30.35,NE,38,4.0,0.0,100,0.03,,,-99.99,,2013-05-25 10:33:00,
2013-05-25 06:42:00,40.0,40.0,30.35,NE,38,4.0,0.0,100,0.03,,,-99.99,,2013-05-25 10:42:00,
2013-05-25 06:52:00,39.0,39.0,30.35,NE,51,5.0,0.0,100,0.03,,,-99.99,,2013-05-25 10:52:00,
2013-05-25 07:03:00,39.0,39.0,30.36,NE,44,5.0,0.0,100,0.03,,,-99.99,,2013-05-25 11:03:00,
2013-05-25 07:12:00,39.0,39.0,30.36,NE,44,5.0,0.0,100,0.03,,,-99.99,,2013-05-25 11:12:00,
2013-05-25 07:22:00,40.0,40.0,30.37,NE,34,5.0,0.0,100,0.03,,,-99.99,,2013-05-25 11:22:00,
2013-05-25 07:32:00,40.0,40.0,30.37,NE,37,5.0,0.0,100,0.03,,,-99.99,,2013-05-25 11:32:00,
2013-05-25 07:42:00,40.0,40.0,30.37,NE,37,5.0,0.0,100,0.03,,,-99.99,,2013-05-25 11:42:00,
2013-05-25 07:52:00,42.0,42.0,30.38,NE,34,6.0,0.0,100,0.03,,,-99.99,,2013-05-25 11:52:00,
2013-05-25 08:01:00,43.0,43.0,30.39,NNE,23,5.0,0.0,100,0.03,,,-99.99,,2013-05-25 12:01:00,
2013-05-25 08:12:00,43.0,43.0,30.39,NNE,23,5.0,0.0,100,0.03,,,-99.99,,2013-05-25 12:12:00,
2013-05-25 08:22:00,44.0,44.0,30.39,NNE,31,6.0,0.0,100,0.03,,,-99.99,,2013-05-25 12:22:00,
2013-05-25 08:32:00,45.0,45.0,30.39,NNE,28,6.0,0.0,100,0.03,,,-99.99,,2013-05-25 12:32:00,
2013-05-25 08:42:00,45.0,45.0,30.39,NNE,28,6.0,0.0,100,0.03,,,-99.99,,2013-05-25 12:42:00,
2013-05-25 08:52:00,46.0,45.0,30.40,NNE,27,7.0,0.0,98,0.03,,,-99.99,,2013-05-25 12:52:00,
2013-05-25 09:02:00,46.0,45.0,30.40,NNE,27,7.0,0.0,98,0.03,,,-99.99,,2013-05-25 13:02:00,
2013-05-25 09:11:00,46.0,45.0,30.40,NNE,27,7.0,0.0,98,0.03,,,-99.99,,2013-05-25 13:11:00,
2013-05-25 09:22:00,48.0,46.0,30.40,NNE,32,8.0,0.0,93,0.03,,,-99.99,,2013-05-25 13:22:00,
2013-05-25 09:32:00,50.0,46.0,30.40,NE,34,7.0,0.0,87,0.03,,,-99.99,,2013-05-25 13:32:00,
2013-05-25 09:42:00,50.0,46.0,30.40,NE,34,7.0,0.0,87,0.03,,,-99.99,,2013-05-25 13:42:00,
2013-05-25 09:52:00,51.0,44.0,30.40,NE,51,6.0,0.0,78,0.03,,,-99.99,,2013-05-25 13:52:00,
2013-05-25 10:02:00,51.0,44.0,30.40,NE,51,6.0,0.0,78,0.03,,,-99.99,,2013-05-25 14:02:00,
2013-05-25 10:11:00,51.0,44.0,30.40,NE,51,6.0,0.0,78,0.03,,,-99.99,,2013-05-25 14:11:00,
2013-05-25 10:22:00,53.0,42.0,30.39,NNE,28,8.0,0.0,66,0.03,,,-99.99,,2013-05-25 14:22:00,
2013-05-25 10:32:00,53.0,42.0,30.39,East,86,6.0,0.0,65,0.03,,,-99.99,,2013-05-25 14:32:00,
2013-05-25 10:42:00,53.0,42.0,30.39,East,86,6.0,0.0,65,0.03,,,-99.99,,2013-05-25 14:42:00,
2013-05-25 10:52:00,53.0,42.0,30.39,East,86,6.0,0.0,65,0.03,,,-99.99,,2013-05-25 14:52:00,
2013-05-25 11:01:00,55.0,41.0,30.39,North,3,6.0,0.0,60,0.03,,,-99.99,,2013-05-25 15:01:00,
2013-05-25 11:12:00,55.0,41.0,30.39,North,3,6.0,0.0,60,0.03,,,-99.99,,2013-05-25 15:12:00,
2013-05-25 11:22:00,55.0,41.0,30.38,South,172,6.0,0.0,60,0.03,,,-99.99,,2013-05-25 15:22:00,
2013-05-25 11:33:00,55.0,41.0,30.38,South,172,6.0,0.0,60,0.03,,,-99.99,,2013-05-25 15:33:00,
2013-05-25 11:43:00,55.0,41.0,30.38,South,172,6.0,0.0,60,0.03,,,-99.99,,2013-05-25 15:43:00,
2013-05-25 11:53:00,57.0,41.0,30.39,South,179,8.0,0.0,55,0.03,,,-99.99,,2013-05-25 15:53:00,
2013-05-25 12:03:00,57.0,41.0,30.39,South,179,8.0,0.0,55,0.03,,,-99.99,,2013-05-25 16:03:00,
2013-05-25 12:12:00,57.0,41.0,30.39,South,179,8.0,0.0,55,0.03,,,-99.99,,2013-05-25 16:12:00,
2013-05-25 12:23:00,57.0,40.0,30.39,East,86,5.0,0.0,52,0.03,,,-99.99,,2013-05-25 16:23:00,
2013-05-25 12:32:00,57.0,40.0,30.39,East,86,5.0,0.0,52,0.03,,,-99.99,,2013-05-25 16:32:00,
2013-05-25 12:42:00,57.0,40.0,30.39,East,86,5.0,0.0,52,0.03,,,-99.99,,2013-05-25 16:42:00,
2013-05-25 12:52:00,57.0,40.0,30.39,East,86,5.0,0.0,52,0.03,,,-99.99,,2013-05-25 16:52:00,
2013-05-25 14:32:00,61.0,38.0,30.36,NNE,20,5.0,0.0,43,0.03,,,-99.99,,2013-05-25 18:32:00,
2013-05-25 14:42:00,61.0,38.0,30.36,NNE,20,5.0,0.0,43,0.03,,,-99.99,,2013-05-25 18:42:00,
2013-05-25 14:52:00,61.0,38.0,30.36,South,179,8.0,0.0,42,0.03,,,-99.99,,2013-05-25 18:52:00,
2013-05-25 15:02:00,61.0,36.0,30.35,ENE,62,4.0,0.0,40,0.03,,,-99.99,,2013-05-25 19:02:00,
2013-05-25 15:11:00,61.0,36.0,30.35,ENE,62,4.0,0.0,40,0.03,,,-99.99,,2013-05-25 19:11:00,
2013-05-25 15:22:00,63.0,38.0,30.34,SE,146,4.0,0.0,39,0.03,,,-99.99,,2013-05-25 19:22:00,
2013-05-25 15:32:00,63.0,36.0,30.34,North,6,5.0,0.0,37,0.03,,,-99.99,,2013-05-25 19:32:00,
2013-05-25 15:42:00,63.0,36.0,30.34,North,6,5.0,0.0,37,0.03,,,-99.99,,2013-05-25 19:42:00,
2013-05-25 15:52:00,63.0,38.0,30.33,North,7,7.0,0.0,40,0.03,,,-99.99,,2013-05-25 19:52:00,
2013-05-25 16:02:00,63.0,37.0,30.33,NNE,18,4.0,0.0,38,0.03,,,-99.99,,2013-05-25 20:02:00,
2013-05-25 16:11:00,63.0,37.0,30.33,NNE,18,4.0,0.0,38,0.03,,,-99.99,,2013-05-25 20:11:00,
2013-05-25 16:22:00,63.0,37.0,30.33,NNE,18,4.0,0.0,38,0.03,,,-99.99,,2013-05-25 20:22:00,
2013-05-25 16:32:00,63.0,36.0,30.32,ENE,73,2.0,0.0,37,0.03,,,-99.99,,2013-05-25 20:32:00,
2013-05-25 16:42:00,63.0,36.0,30.32,ENE,73,2.0,0.0,37,0.03,,,-99.99,,2013-05-25 20:42:00,
2013-05-25 16:52:00,63.0,36.0,30.32,ENE,73,2.0,0.0,37,0.03,,,-99.99,,2013-05-25 20:52:00,
2013-05-25 17:02:00,63.0,36.0,30.32,ENE,73,2.0,0.0,37,0.03,,,-99.99,,2013-05-25 21:02:00,
2013-05-25 17:11:00,63.0,36.0,30.32,ENE,73,2.0,0.0,37,0.03,,,-99.99,,2013-05-25 21:11:00,
2013-05-25 17:33:00,64.0,39.0,30.30,NE,41,7.0,0.0,40,0.03,,,-99.99,,2013-05-25 21:33:00,
2013-05-25 17:43:00,64.0,39.0,30.30,NE,41,7.0,0.0,40,0.03,,,-99.99,,2013-05-25 21:43:00,
2013-05-25 17:53:00,63.0,38.0,30.30,SE,135,5.0,0.0,39,0.03,,,-99.99,,2013-05-25 21:53:00,
2013-05-25 18:03:00,63.0,38.0,30.30,NNE,15,6.0,0.0,39,0.03,,,-99.99,,2013-05-25 22:03:00,
2013-05-25 18:13:00,63.0,38.0,30.30,NNE,15,6.0,0.0,39,0.03,,,-99.99,,2013-05-25 22:13:00,
2013-05-25 18:23:00,63.0,38.0,30.30,NNE,15,6.0,0.0,39,0.03,,,-99.99,,2013-05-25 22:23:00,
2013-05-25 18:32:00,63.0,37.0,30.30,NNE,21,5.0,0.0,38,0.03,,,-99.99,,2013-05-25 22:32:00,
2013-05-25 18:42:00,63.0,37.0,30.30,NNE,21,5.0,0.0,38,0.03,,,-99.99,,2013-05-25 22:42:00,
2013-05-25 18:52:00,63.0,36.0,30.30,NE,46,4.0,0.0,36,0.03,,,-99.99,,2013-05-25 22:52:00,
2013-05-25 19:02:00,63.0,36.0,30.30,NE,46,0.0,0.0,37,0.03,,,-99.99,,2013-05-25 23:02:00,
2013-05-25 19:12:00,63.0,36.0,30.30,NE,46,0.0,0.0,37,0.03,,,-99.99,,2013-05-25 23:12:00,
2013-05-25 19:22:00,64.0,37.0,30.30,NNE,30,3.0,0.0,36,0.03,,,-99.99,,2013-05-25 23:22:00,
2013-05-25 19:32:00,63.0,36.0,30.29,ENE,68,3.0,0.0,37,0.03,,,-99.99,,2013-05-25 23:32:00,
2013-05-25 19:42:00,63.0,36.0,30.29,ENE,68,3.0,0.0,37,0.03,,,-99.99,,2013-05-25 23:42:00,
2013-05-25 19:52:00,63.0,38.0,30.29,ESE,105,0.0,0.0,39,0.03,,,-99.99,,2013-05-25 23:52:00,
2013-05-25 20:02:00,63.0,38.0,30.29,ESE,105,0.0,0.0,40,0.03,,,-99.99,,2013-05-26 00:02:00,
2013-05-25 20:11:00,63.0,38.0,30.29,ESE,105,0.0,0.0,40,0.03,,,-99.99,,2013-05-26 00:11:00,
2013-05-25 20:22:00,63.0,39.0,30.29,ESE,105,0.0,0.0,41,0.03,,,-99.99,,2013-05-26 00:22:00,
2013-05-25 20:32:00,62.0,39.0,30.29,ESE,105,0.0,0.0,42,0.03,,,-99.99,,2013-05-26 00:32:00,
2013-05-25 20:42:00,62.0,39.0,30.29,ESE,105,0.0,0.0,42,0.03,,,-99.99,,2013-05-26 00:42:00,
2013-05-25 20:52:00,62.0,40.0,30.28,ESE,105,0.0,0.0,44,0.03,,,-99.99,,2013-05-26 00:52:00,
2013-05-25 21:01:00,61.0,40.0,30.28,ESE,105,0.0,0.0,46,0.03,,,-99.99,,2013-05-26 01:01:00,
2013-05-25 21:11:00,61.0,40.0,30.28,ESE,105,0.0,0.0,46,0.03,,,-99.99,,2013-05-26 01:11:00,
2013-05-25 21:21:00,60.0,43.0,30.28,ESE,105,0.0,0.0,53,0.03,,,-99.99,,2013-05-26 01:21:00,
2013-05-25 21:32:00,59.0,43.0,30.28,ESE,105,0.0,0.0,55,0.03,,,-99.99,,2013-05-26 01:32:00,
2013-05-25 21:42:00,59.0,43.0,30.28,ESE,105,0.0,0.0,55,0.03,,,-99.99,,2013-05-26 01:42:00,
2013-05-25 21:53:00,57.0,43.0,30.28,ESE,105,0.0,0.0,60,0.03,,,-99.99,,2013-05-26 01:53:00,
2013-05-25 22:02:00,56.0,44.0,30.28,ESE,105,0.0,0.0,63,0.03,,,-99.99,,2013-05-26 02:02:00,
2013-05-25 22:11:00,56.0,44.0,30.28,ESE,105,0.0,0.0,63,0.03,,,-99.99,,2013-05-26 02:11:00,
2013-05-25 22:21:00,55.0,44.0,30.29,ESE,105,0.0,0.0,66,0.03,,,-99.99,,2013-05-26 02:21:00,
2013-05-25 22:32:00,54.0,45.0,30.29,ESE,105,0.0,0.0,72,0.03,,,-99.99,,2013-05-26 02:32:00,
2013-05-25 22:42:00,54.0,45.0,30.29,ESE,105,0.0,0.0,72,0.03,,,-99.99,,2013-05-26 02:42:00,
2013-05-25 22:52:00,54.0,46.0,30.30,ESE,105,0.0,0.0,75,0.03,,,-99.99,,2013-05-26 02:52:00,
2013-05-25 23:01:00,53.0,46.0,30.29,ESE,105,0.0,0.0,77,0.03,,,-99.99,,2013-05-26 03:01:00,
2013-05-25 23:11:00,53.0,46.0,30.29,ESE,105,0.0,0.0,77,0.03,,,-99.99,,2013-05-26 03:11:00,
2013-05-25 23:22:00,52.0,46.0,30.30,ESE,105,0.0,0.0,79,0.03,,,-99.99,,2013-05-26 03:22:00,
2013-05-25 23:33:00,52.0,46.0,30.30,ESE,105,0.0,0.0,81,0.03,,,-99.99,,2013-05-26 03:33:00,
2013-05-25 23:43:00,52.0,46.0,30.30,ESE,105,0.0,0.0,81,0.03,,,-99.99,,2013-05-26 03:43:00,
2013-05-25 23:53:00,50.0,46.0,30.30,ESE,105,0.0,0.0,87,0.03,,,-99.99,,2013-05-26 03:53:00,